STARLINK-2418

Last updated on Sat May 08 2021 00:02:03 GMT+0000 (Coordinated Universal Time)

1 48097U 21027F 21127.58334491 .00033227 00000-0 23995-3 0 9998 2 48097 53.0474 191.7672 0002463 26.8877 266.0057 15.73221596 1771
UTC large
Height (km)
Speed (km/s)
/
Latitude / Longitude
Inclination (degrees)
Orbital Period (minutes)
Azimuth
Elevation
Range (km)
Doppler Factor

Next 0 passes for location: London (51.5072 / 0.1276)

Sorry there are no passes over London.